Location: Kawakawa
(35.3830°S, 174.0670°E)
Time: 17:26:24
(UTC+12:00)

Cosmos 1328 Rocket - Pass Details

Date: 15 August 2020
Orbit: 602 x 626 km, 82.5° (Epoch: 25 September)

Event Time Altitude Azimuth Distance (km) Brightness Sun altitude
Rises 19:55:00 0° 346° (NNW) 2,899 7.2 -25.6°
Reaches altitude 10° 19:57:14 10° 342° (NNW) 1,999 6.3 -26.0°
Maximum altitude 20:01:37 60° 262° (W) 722 4.0 -26.9°
Enters shadow 20:02:25 51° 217° (SW) 800 4.2 -27.1°
